Waarnemingen

Advertentie
Mijn weer
Helgoland, Duitsland (10015): temperatuur & dauwpunt: 21.06.2017 02:00:00 - 27.06.2017 02:00:00 (CEST)Helgoland, Duitsland (10015): temperatuur 5cm: 21.06.2017 02:00:00 - 27.06.2017 02:00:00 (CEST)Helgoland, Duitsland (10015): windsnelheid & windstoten: 21.06.2017 02:00:00 - 27.06.2017 02:00:00 (CEST)Helgoland, Duitsland (10015): windrichting: 21.06.2017 02:00:00 - 27.06.2017 02:00:00 (CEST)Helgoland, Duitsland (10015): luchtdruk: 21.06.2017 02:00:00 - 27.06.2017 02:00:00 (CEST)Helgoland, Duitsland (10015): zicht: 21.06.2017 02:00:00 - 27.06.2017 02:00:00 (CEST)Helgoland, Duitsland (10015): Zonneschijnduur: 21.06.2017 02:00:00 - 27.06.2017 02:00:00 (CEST)Helgoland, Duitsland (10015): neerslag: 21.06.2017 02:00:00 - 27.06.2017 02:00:00 (CEST)
Datum & Tijd tt [°C] td [°C] tt 5cm [°C] ff [km/u] ff [kn] fx [km/u] fx [kn] dd ppp [hPa] vv [km] sd [min] rr [mm]
27.06.2017 02:00:00 13,8 8,5 13,5 11 6 24 13 NW 1014,3 40 0 0,0
27.06.2017 01:00:00 13,7 7,7 12,2 16 9 28 15 NW 1014,4 49 0 0,0
27.06.2017 00:00:00 13,6 8,1 12,1 20 11 29 15 NW 1014,0 48 0 0,0
26.06.2017 23:00:00 13,7 8,5 12,2 21 11 33 18 NW 1013,5 43 0 0,0
26.06.2017 22:00:00 14,1 9,0 13,6 25 14 34 18 NW 1013,9 37 0 0,0
26.06.2017 21:00:00 14,4 9,1 14,8 23 13 36 19 WNW 1014,0 34 14 0,0
26.06.2017 20:00:00 14,6 8,1 17,3 29 15 36 19 WNW 1014,0 25 56 0,0
26.06.2017 19:00:00 15,2 8,6 19,2 28 15 38 21 WNW 1014,0 23 58 0,0
26.06.2017 18:00:00 15,0 8,5 20,1 29 16 39 21 WNW 1013,8 9 58 0,0
26.06.2017 17:00:00 15,3 9,2 21,7 31 17 39 21 WNW 1013,7 18 55 0,0
26.06.2017 16:00:00 14,8 9,1 18,8 31 17 41 22 WNW 1013,4 19 52 0,0
26.06.2017 15:00:00 15,3 8,8 22,7 34 18 41 22 WNW 1013,1 10 55 0,0
26.06.2017 14:00:00 15,0 8,2 21,8 35 19 43 23 WNW 1012,7 8 59 0,0
26.06.2017 13:00:00 15,3 9,2 21,5 35 19 43 23 WNW 1012,6 10 52 0,0
26.06.2017 12:00:00 15,0 9,1 21,1 35 19 43 23 WNW 1012,1 8 59 0,0
26.06.2017 11:00:00 14,7 8,8 19,4 33 18 42 23 WNW 1011,4 10 60 0,0
26.06.2017 10:00:00 15,0 9,0 18,6 30 16 40 22 WNW 1010,8 13 51 0,0
26.06.2017 09:00:00 14,8 9,1 17,1 29 16 44 24 WNW 1010,2 21 42 0,0
26.06.2017 08:00:00 14,5 10,5 15,0 34 19 44 24 WNW 1009,7 26 26 0,0
26.06.2017 07:00:00 14,8 9,9 14,3 35 19 42 23 WNW 1009,2 15 55 0,0
26.06.2017 06:00:00 14,6 10,2 13,2 32 17 41 22 WNW 1008,7 40 1 0,0
26.06.2017 05:00:00 14,4 10,6 13,0 31 17 38 20 W 1008,6 41 0 0,0
26.06.2017 04:00:00 14,4 10,3 12,7 31 17 40 21 WNW 1008,7 49 0 0,0
26.06.2017 03:00:00 14,5 10,5 13,0 31 17 41 22 WNW 1008,6 37 0 0,0
26.06.2017 02:00:00 14,6 10,1 13,4 31 17 42 23 W 1008,6 42 0 0,0
26.06.2017 01:00:00 14,8 10,2 14,1 35 19 46 25 W 1008,7 34 0 0,0
26.06.2017 00:00:00 14,9 10,8 13,8 32 18 46 25 W 1008,7 31 0 0,0
25.06.2017 23:00:00 14,7 10,8 13,7 37 20 48 26 W 1008,7 30 0 0,0
25.06.2017 22:00:00 14,9 10,5 13,8 34 18 45 24 W 1008,8 44 12 0,0
25.06.2017 21:00:00 15,4 10,4 15,6 37 20 46 25 W 1008,8 22 43 0,0
25.06.2017 20:00:00 15,3 10,1 16,1 32 18 46 25 W 1009,0 24 10 0,0
25.06.2017 19:00:00 15,9 11,1 19,0 32 17 44 24 W 1009,1 40 16 0,0
25.06.2017 18:00:00 15,3 10,7 16,2 32 18 49 27 W 1009,1 32 20 0,0
25.06.2017 17:00:00 15,9 10,0 19,3 37 20 49 26 W 1009,0 16 22 0,0
25.06.2017 16:00:00 15,5 9,3 17,7 35 19 53 28 W 1008,9 16 24 0,0
25.06.2017 15:00:00 15,7 9,7 18,6 39 21 51 28 W 1008,8 19 9 0,0
25.06.2017 14:00:00 15,7 10,7 19,6 37 20 47 26 W 1008,4 13 17 0,0
25.06.2017 13:00:00 15,9 10,1 19,7 35 19 49 26 W 1008,0 10 31 0,0
25.06.2017 12:00:00 15,7 11,6 17,0 35 19 43 23 W 1007,5 28 0 0,0
25.06.2017 11:00:00 16,0 11,1 17,8 34 18 47 25 W 1007,0 27 18 0,0
25.06.2017 10:00:00 15,9 11,5 18,1 31 17 45 25 W 1006,7 22 7 0,0
25.06.2017 09:00:00 16,0 11,4 17,1 32 17 45 24 W 1006,2 22 1 0,0
25.06.2017 08:00:00 16,0 12,7 16,3 30 16 40 21 W 1006,0 26 0 0,0
25.06.2017 07:00:00 16,0 14,0 15,8 26 14 32 17 WZW 1005,9 21 0 0,0
25.06.2017 06:00:00 15,7 14,3 15,2 23 12 29 16 WZW 1005,9 16 0 0,0
25.06.2017 05:00:00 15,6 14,7 15,1 20 11 24 13 WZW 1006,1 13 0 0,0
25.06.2017 04:00:00 15,6 15,0 14,8 17 9 21 12 ZW 1006,3 12 0 0,0
25.06.2017 03:00:00 15,4 14,9 14,9 16 9 24 13 ZZW 1006,8 11 0 0,0
25.06.2017 02:00:00 15,2 14,5 14,9 20 11 27 15 ZZW 1007,7 10 0 0,0
25.06.2017 01:00:00 15,5 13,9 15,2 23 12 31 17 ZW 1008,5 17 0 0,0
25.06.2017 00:00:00 15,5 13,4 15,3 21 12 26 14 WZW 1009,2 20 0 0,0
24.06.2017 23:00:00 15,3 13,2 14,7 23 12 37 20 WZW 1009,7 23 0 0,0
24.06.2017 22:00:00 15,4 12,4 15,3 29 16 36 20 WZW 1009,8 29 0 0,0
24.06.2017 21:00:00 15,6 12,0 15,6 24 13 36 20 WZW 1010,1 35 0 0,0
24.06.2017 20:00:00 15,7 11,7 16,1 25 13 37 20 W 1010,6 42 16 0,0
24.06.2017 19:00:00 16,2 11,7 19,4 26 14 44 24 W 1010,6 18 53 0,0
24.06.2017 18:00:00 16,1 11,8 19,9 31 17 45 24 W 1010,7 14 39 0,0
24.06.2017 17:00:00 16,1 11,1 20,0 36 19 48 26 W 1010,6 10 39 0,0
24.06.2017 16:00:00 16,1 12,3 19,1 36 19 45 24 W 1010,7 18 54 0,0
24.06.2017 15:00:00 16,0 12,7 20,8 35 19 56 30 W 1010,0 10 38 0,0
24.06.2017 14:00:00 16,2 14,8 18,2 39 21 48 26 WZW 1009,2 13 1 0,0
24.06.2017 13:00:00 15,7 15,0 16,2 39 21 46 25 WZW 1008,8 7 0 0,0
24.06.2017 12:00:00 15,8 14,9 16,5 37 20 46 25 WZW 1008,8 12 0 0,0
24.06.2017 11:00:00 16,1 14,7 17,0 36 20 46 25 WZW 1008,8 10 0 0,0
24.06.2017 10:00:00 16,3 14,7 17,0 31 17 40 22 WZW 1008,9 15 0 0,0
24.06.2017 09:00:00 16,3 14,7 16,8 33 18 41 22 WZW 1008,8 15 0 0,0
24.06.2017 08:00:00 16,4 14,9 16,3 31 17 40 21 WZW 1009,0 14 0 0,0
24.06.2017 07:00:00 16,3 14,9 16,1 34 19 44 24 WZW 1009,3 16 0 0,0
24.06.2017 06:00:00 16,1 15,0 15,7 28 15 36 20 WZW 1009,6 11 0 0,0
24.06.2017 05:00:00 15,9 15,1 15,5 29 16 39 21 W 1010,0 8 0 0,1
24.06.2017 04:00:00 16,1 15,1 15,9 25 14 36 19 WZW 1010,4 12 0 0,0
24.06.2017 03:00:00 16,0 15,0 15,6 29 15 42 23 WZW 1011,0 3,9 0 0,0
24.06.2017 02:00:00 15,9 14,9 15,8 31 17 47 25 WZW 1011,1 10 0 0,0
24.06.2017 01:00:00 16,1 14,7 15,9 31 17 39 21 WZW 1011,7 12 0 0,0
24.06.2017 00:00:00 15,8 14,4 15,7 31 17 41 22 WZW 1012,3 14 0 0,0
23.06.2017 23:00:00 15,7 14,0 15,1 30 16 40 22 WZW 1012,4 15 0 0,0
23.06.2017 22:00:00 15,7 13,5 15,6 31 17 43 23 W 1012,6 19 0 0,0
23.06.2017 21:00:00 15,6 13,3 15,5 34 18 44 24 W 1012,6 19 0 0,0
23.06.2017 20:00:00 15,5 13,1 15,4 33 18 46 25 W 1012,9 18 0 0,0
23.06.2017 19:00:00 15,7 13,6 16,2 25 13 41 22 W 1012,7 14 0 0,0
23.06.2017 18:00:00 16,0 13,6 17,1 34 18 45 24 W 1012,9 16 4 0,1
23.06.2017 17:00:00 16,2 14,2 16,4 29 16 39 21 W 1012,7 10 0 0,0
23.06.2017 16:00:00 16,2 13,2 17,7 31 17 50 27 W 1012,3 17 0 0,0
23.06.2017 15:00:00 16,2 12,8 19,0 36 19 47 26 WZW 1012,2 15 0 0,0
23.06.2017 14:00:00 16,2 13,0 19,5 33 18 44 24 WZW 1012,1 12 11 0,0
23.06.2017 13:00:00 16,4 13,9 19,9 28 15 41 22 WZW 1012,0 15 18 0,0
23.06.2017 12:00:00 16,6 14,3 20,2 34 19 49 26 W 1011,8 15 6 0,0
23.06.2017 11:00:00 15,7 13,5 16,6 33 18 48 26 W 1011,4 14 0 0,0
23.06.2017 10:00:00 15,4 13,2 15,9 43 23 54 29 WNW 1010,6 15 0 0,0
23.06.2017 09:00:00 15,4 13,9 15,7 40 22 52 28 WNW 1009,7 22 0 0,0
23.06.2017 08:00:00 15,4 14,4 15,2 39 21 56 31 WNW 1009,2 13 0 0,0
23.06.2017 07:00:00 15,0 14,6 15,0 48 26 59 32 W 1008,3 6 0 0,0
23.06.2017 06:00:00 15,2 14,8 15,1 45 24 57 31 W 1007,5 4,6 0 0,0
23.06.2017 05:00:00 15,4 14,7 15,3 49 27 60 32 WNW 1007,0 7 0 0,0
23.06.2017 04:00:00 15,5 14,9 15,4 42 23 55 30 W 1006,7 7 0 0,0
23.06.2017 03:00:00 15,4 15,1 15,4 42 23 55 30 W 1006,7 2,5 0 0,0
23.06.2017 02:00:00 15,9 15,4 15,9 39 21 50 27 W 1006,5 1,9 0 0,0
23.06.2017 01:00:00 15,9 15,5 15,9 37 20 50 27 W 1006,1 1,7 0 0,0
23.06.2017 00:00:00 16,3 15,7 16,2 36 20 44 24 WZW 1005,5 1,9 0 0,0
22.06.2017 23:00:00 16,7 15,8 16,7 36 19 47 25 WZW 1005,2 3,0 0 0,0
22.06.2017 22:00:00 16,7 15,9 16,5 32 17 40 21 WZW 1004,6 2,7 0 0,0
22.06.2017 21:00:00 17,5 16,0 17,4 24 13 40 22 W 1004,7 4,5 0 0,0
22.06.2017 20:00:00 18,4 15,7 18,1 37 20 43 23 W 1005,7 11 0 0,0
22.06.2017 19:00:00 19,5 15,6 18,6 37 20 58 31 ZZW 1004,8 15 0 0,5
22.06.2017 18:00:00 18,5 17,0 18,3 24 13 56 30 WZW 1006,5 3,1 0 0,0
22.06.2017 17:00:00 19,4 16,9 20,3 24 13 37 20 ZW 1006,5 4,8 7 0,0
22.06.2017 16:00:00 20,1 16,8 23,6 32 17 36 20 Z 1005,8 9 51 0,0
22.06.2017 15:00:00 19,3 16,7 23,0 29 16 41 22 Z 1006,9 10 51 0,0
22.06.2017 14:00:00 18,9 16,7 21,9 36 19 52 28 ZZO 1007,3 11 55 0,0
22.06.2017 13:00:00 18,2 15,8 22,7 41 22 58 31 ZO 1007,8 10 60 0,0
22.06.2017 12:00:00 17,0 15,0 20,4 44 24 56 30 OZO 1008,3 9 45 0,0
22.06.2017 11:00:00 14,8 13,9 15,5 46 25 56 30 ONO 1010,2 4,7 0 15,6
22.06.2017 10:00:00 18,6 14,6 16,7 25 14 122 66 ONO 1011,1 12 0 0,0
22.06.2017 09:00:00 17,3 14,4 18,4 32 18 37 20 ZO 1008,7 31 0 0,0
22.06.2017 08:00:00 16,9 13,7 17,2 29 16 - - ZZO 1009,9 32 0 0,0
22.06.2017 07:00:00 16,9 12,9 15,8 30 16 41 22 ZZO 1011,0 25 0 0,0
22.06.2017 06:00:00 16,8 12,6 16,0 35 19 39 21 ZZO 1011,4 52 0 0,0
22.06.2017 05:00:00 16,3 12,6 15,6 28 15 33 18 ZZO 1013,0 49 0 0,0
22.06.2017 04:00:00 16,2 13,1 15,1 23 12 27 15 ZZO 1014,0 61 0 0,0
22.06.2017 03:00:00 16,0 12,0 14,8 21 11 25 14 ZO 1014,7 70 0 0,0
22.06.2017 02:00:00 15,9 11,6 14,4 18 10 22 12 OZO 1014,7 70 0 0,0
22.06.2017 01:00:00 15,7 11,3 14,3 14 8 17 9 ZO 1015,5 69 0 0,0
22.06.2017 00:00:00 15,3 11,0 13,7 13 7 16 8 OZO 1015,9 68 0 0,0
21.06.2017 23:00:00 15,1 10,4 13,3 11 6 18 10 O 1016,5 70 0 0,0
21.06.2017 22:00:00 15,1 10,6 14,0 13 7 21 11 O 1016,5 52 0 0,0
21.06.2017 21:00:00 15,1 10,1 15,5 16 9 21 12 NO 1017,0 55 0 0,0
21.06.2017 20:00:00 14,9 9,4 16,0 16 9 19 11 NNO 1017,5 67 0 0,0
21.06.2017 19:00:00 15,5 9,0 20,3 10 6 16 9 N 1018,1 70 6 0,0
21.06.2017 18:00:00 15,5 8,2 21,3 12 6 18 10 N 1018,7 70 56 0,0
21.06.2017 17:00:00 15,8 8,4 26,0 6 3 14 8 N 1018,6 27 59 0,0
21.06.2017 16:00:00 15,4 7,8 25,3 7 4 11 6 N 1019,0 21 59 0,0
21.06.2017 15:00:00 15,8 7,6 26,4 6 3 12 6 N 1019,7 17 60 0,0
21.06.2017 14:00:00 15,7 8,4 26,8 7 4 16 9 NNW 1019,9 34 49 0,0
21.06.2017 13:00:00 15,5 8,1 23,1 11 6 21 11 WNW 1020,5 30 41 0,0
21.06.2017 12:00:00 15,9 8,9 20,8 10 5 21 12 NW 1020,7 44 42 0,0
21.06.2017 11:00:00 15,3 7,5 21,6 15 8 19 10 WNW 1020,8 23 55 0,0
21.06.2017 10:00:00 15,3 8,6 19,8 13 7 18 10 NW 1020,6 42 5 0,0
21.06.2017 09:00:00 14,6 8,5 16,7 10 5 14 8 WNW 1020,6 55 14 0,0
21.06.2017 08:00:00 14,5 8,4 15,7 9 5 15 8 N 1020,5 57 17 0,0
21.06.2017 07:00:00 14,2 8,3 14,5 11 6 20 11 NNW 1020,6 66 4 0,0
21.06.2017 06:00:00 13,9 7,9 13,0 17 9 23 12 NNW 1020,7 70 0 0,0
21.06.2017 05:00:00 13,9 8,4 12,3 18 10 24 13 NNW 1020,5 56 0 0,0
21.06.2017 04:00:00 13,8 8,9 12,7 16 9 23 13 NW 1020,6 70 0 0,0
21.06.2017 03:00:00 13,8 8,8 12,2 18 10 25 13 NNW 1021,0 48 0 0,0
21.06.2017 02:00:00 14,0 9,0 12,2 19 10 29 16 NNW 1021,1 56 0 0,0

tt = temperatuur
td = dauwpunt
tt 5cm = temperatuur 5cm
ff = windsnelheid
fx = windstoten
dd = windrichting
ppp = luchtdruk
vv = zicht
sd = Zonneschijnduur
rr = neerslag

Weerstations in de omgeving